Regional Weather Roundup
Issued by NWS New Orleans/Baton Rouge, LA

Home | Current Version | Previous Version | Text Only | Print | Product List | Glossary On
Versions: 1 2 3 4 5 6 7 8 9 10 11 12 13 14 15 16 17 18 19 20 21 22 23 24 25 26 27 28 29 30 31 32 33 34 35 36 37 38 39 40 41 42 43 44 45 46 47 48 49 50
000
ASUS44 KLIX 291410
RWRLIX
NEW ORLEANS REGIONAL WEATHER ROUNDUP
NATIONAL WEATHER SERVICE NEW ORLEANS LA
900 AM CDT TUE JUL 29 2014

NOTE: "FAIR" INDICATES FEW OR NO CLOUDS BELOW 12,000 FEET WITH NO
      SIGNIFICANT WEATHER AND/OR OBSTRUCTIONS TO VISIBILITY.
      SKY/WX - SKY CONDITION AND SIGNIFICANT WEATHER.
      TMP - AIR TEMPERATURE.     DP    - DEWPOINT TEMPERATURE.
      RH  - RELATIVE HUMIDITY.   PRES  - PRESSURE.
      HI  - HEAT INDEX.          WCI   - WIND CHILL INDEX.

*  THESE STATIONS ARE NOT NWS OR FAA STATIONS AND ARE NOT UNDER
   NWS QUALITY CONTROL.

LAZ038-040-048-061>063-065>067-069-291500-
SOUTHEAST LOUISIANA

CITY           SKY/WX    TMP DP  RH WIND       PRES   REMARKS
N.O. AUDUBON     N/A     84  70  61 MISG        N/A
N.O. INTL ARPT CLOUDY    81  68  64 NE7       30.07R
N.O. LAKEFRONT PTSUNNY   80  68  66 NE7       30.07R
N.O. DOWNTOWN* PTSUNNY   81  63  54 NE6       30.07R
SLIDELL        PTSUNNY   77  69  76 N6        30.06R
BATON ROUGE    CLOUDY    79  68  69 VRB3      30.08S
BOOTHVILLE     PTSUNNY   82  72  71 NE8       30.05S
BELLE CHASSE   CLOUDY    83  69  62 VRB3      30.06S
BOGALUSA*        N/A     78  67  70 CALM      30.09R
GALLIANO*      NOT AVBL
NEW ROADS*     CLOUDY    76  70  81 N3        30.09S
GONZALES*      CLOUDY    78  72  81 CALM      30.06F
HAMMOND*       PTSUNNY   77  68  73 N5        30.08F
HOUMA*         CLOUDY    81  72  74 N3        30.06F
PORT FOURCHON* CLOUDY    82  73  74 NW3       30.08R

$$

MSZ070-080>082-291500-
SOUTHERN MISSISSIPPI

CITY           SKY/WX    TMP DP  RH WIND       PRES   REMARKS
MCCOMB         SUNNY     78  65  63 N6        30.10R
GULFPORT       PTSUNNY   83  66  56 N10       30.05R
BILOXI         PTSUNNY   80  66  61 NE10      30.05S
PASCAGOULA     MOSUNNY   80  67  64 NE8       30.05R
STENNIS ARPT*  SUNNY    N/A N/A N/A N6        30.06R

$$

COASTAL OBSERVATIONS
LAKE AND NEARSHORE STATIONS

STATION/POSITION TIME  TEMP    WIND        PRES    WAVE
                       AIR SEA DIR/SP/G            HT/PER
                 (UTC) (F)     (DEG/KT/KT) (MB)    (FT/S)
PASCAGOULA       1400   80      10/  7/ 12 1017.0
WAVELAND YACHT   1400   78      40/  7/  8 1017.1
GRAND ISLE       1400   82 86   40/  6/  8 1018.2
SOUTHWEST PASS   1400   86 84   30/ 10/ 11 1017.8
NEW CANAL        1400   80 83   50/  7/  9 1018.5
SHELL BEACH      1400   80 81   40/  9/ 12 1017.5

OFFSHORE STATIONS

STATION/POSITION TIME  TEMP    WIND        PRES    WAVE
                       AIR SEA DIR/SP/G            HT/PER
                 (UTC) (F)     (DEG/KT/KT) (MB)    (FT/S)
64 S DAUPHIN ISL 1326   83 85   20/ 14/ 17 1016.8

$$



USA.gov is the U.S. government's official web portal to all federal, state and local government web resources and services.